STARLINK BK

Last updated on June 19, 2020, 12:02 a.m. UTC

1 45787U 20038BK  20170.75001157  .00111991  11273-4  13938-3 0  9997
2 45787  52.9998 271.8089 0111502  69.6068 146.8193 15.96101209  1956

Satellite is not in orbit.